Home   Weather   Windhoek   Past weeks

Flag for Namibia Past Weather in Windhoek, Namibia — Yesterday and Last 2 Weeks

Now
81 °F

Sunny.


Feels Like: 78 °F
Forecast: 48 / 83 °F
Wind: 9 mph from West

Location: Windhoek

Current Time: Sep 27, 2016 at 4:02:36 PM

Latest Report: Sep 27, 2016 at 3:00 PM


Visibility: 10 mi

Pressure: 30.12 "Hg (24.88 "Hg at 1680m altitude)

Humidity: 7%

Dew Point: 10 °F

Location of WindhoekLocation

Past Weather in Windhoek — Graph

°F

Windhoek Temperature Yesterday

Maximum temperature yesterday: 88 °F (at 3:00 PM)
Minimum temperature yesterday: 63 °F (at 11:00 PM)
Average temperature yesterday: 73 °F

High & Low Weather Summary for the Past Weeks

 TemperatureHumidityPressure
High91 °F (Sep 24, 3:00 PM)53% (Sep 17, 6:00 AM)30.39 "Hg (Sep 17, 6:00 AM)
Low41 °F (Sep 17, 6:00 AM)2% (Sep 22, 3:00 PM)30.01 "Hg (Sep 26, 4:00 PM)
Average70 °F15%30.19 "Hg
* Reported Sep 12 2:00 PM — Sep 27 2:00 PM, Windhoek, Weather by CustomWeather, © 2016

Note: Actual official high and low records may vary slightly from our data, if they occured in-between our weather recording intervals... More about our weather records

Advertising

Windhoek Weather History for the Previous 24 Hours

Scroll right to see more
 ConditionsComfort  
Time TempWeatherWind HumidityBarometerVisibility
2:00 PM
Tue, Sep 27
81 °FSunny.10 mph6%30.12 "Hg10 mi
1:00 PM77 °FSunny.3 mph6%30.15 "Hg10 mi
12:00 PM75 °FSunny.3 mph6%30.15 "Hg10 mi
11:00 AM72 °FSunny.1 mph8%30.15 "Hg10 mi
10:00 AM70 °FSunny.No wind11%30.15 "Hg10 mi
9:00 AM64 °FSunny.1 mph22%30.15 "Hg10 mi
8:00 AM59 °FSunny.1 mph23%30.15 "Hg10 mi
7:00 AM54 °FSunny.3 mph35%30.12 "Hg10 mi
6:00 AM55 °FClear.2 mph41%30.12 "Hg10 mi
5:00 AM52 °FClear.3 mph44%30.09 "Hg10 mi
4:00 AM54 °FCool.2 mph44%30.12 "HgN/A
3:00 AM57 °FRefreshingly cool.1 mph36%30.09 "HgN/A
2:00 AM57 °FRefreshingly cool.3 mph39%30.12 "HgN/A
1:00 AM59 °FRefreshingly cool.2 mph36%30.15 "HgN/A
12:00 AM61 °FRefreshingly cool.2 mph34%30.15 "HgN/A
11:00 PM
Mon, Sep 26
63 °FMild.3 mph32%30.15 "HgN/A
10:00 PM64 °FMild.8 mph28%30.12 "HgN/A
9:00 PM70 °FMild.5 mph25%30.12 "HgN/A
8:00 PM75 °FClear.8 mph21%30.09 "Hg10 mi
7:00 PM79 °FClear.8 mph15%30.07 "Hg10 mi
6:00 PM82 °FSunny.14 mph12%30.04 "Hg10 mi
5:00 PM86 °FSunny.13 mph12%30.04 "Hg10 mi
4:00 PM86 °FSunny.10 mph13%30.01 "Hg10 mi
Weather by CustomWeather, © 2016

See weather overviewHow to use our weather pages